Torrington, WY

3:08 AM MDT on June 25, 2017 (GMT -0600)
Torrington Municipal

Weather History for KTOR - April, 2013

Change the Weather History Date:

Monday, April 22, 2013

  Actual Average Record
Temperature  
Mean Temperature 32 °F 49 °F  
Max Temperature 41 °F 64 °F 83 °F (2006)
Min Temperature 22 °F 34 °F 22 °F (2013)
Degree Days  
Heating Degree Days 33 16  
Month to date heating degree days 620 429  
Since 1 July heating degree days 6085 6113  
Cooling Degree Days 0 0  
Month to date cooling degree days 0 0  
Year to date cooling degree days 0 0  
Moisture  
Dew Point 24 °F    
Average Humidity 75    
Maximum Humidity 93    
Minimum Humidity 56    
Precipitation  
Precipitation T in 0.06 in 1.01 in (2003)
Month to date precipitation 0.71 1.11  
Year to date precipitation 1.25 2.46  
Sea Level Pressure  
Sea Level Pressure 30.16 in    
Wind  
Wind Speed 16 mph (NE)    
Max Wind Speed 38 mph    
Max Gust Speed 45 mph    
Visibility 9 miles    
Events Snow    
T = Trace of Precipitation, MM = Missing Value Source: NWS Daily Summary

Daily Weather History Graph

Daily Weather History Graph

Search for Another Location

Airport or City:

Trip Planner

Search our weather history database for the weather conditions in past years. The results will help you decide how hot, cold, wet, or windy it might be!

Date:

Astronomy

Apr. 22, 2013 Rise Set
Actual Time 6:04 AM MDT 7:45 PM MDT
Civil Twilight 5:35 AM MDT 8:15 PM MDT
Nautical Twilight 4:59 AM MDT 8:51 PM MDT
Astronomical Twilight 4:20 AM MDT 9:30 PM MDT
Moon 4:34 PM MDT (4/22) 4:04 AM MDT (4/22)
Length of Visible Light 14h 40m
Length of Day
13h 41m
Waxing Gibbous, 88% of the Moon is Illuminated
Apr 22
Waxing Gibbous
Apr 25
Full
May 2
Last Quarter
May 9
New
May 17
First Quarter

Hourly Weather History & Observations

Time (MDT) Temp. Windchill Dew Point Humidity Pressure Visibility Wind Dir Wind Speed Gust Speed Precip Events Conditions
12:53 AM 41.0 °F 33.5 °F 39.0 °F 93% 29.91 in 10.0 mi SE 13.8 mph 23.0 mph N/A   Overcast
1:18 AM 41.0 °F 33.5 °F 39.2 °F 93% 29.93 in 10.0 mi ESE 13.8 mph 23.0 mph N/A   Overcast
1:48 AM 41.0 °F 33.5 °F 39.2 °F 93% 29.91 in 10.0 mi ESE 13.8 mph - N/A   Overcast
1:53 AM 41.0 °F 33.5 °F 39.0 °F 93% 29.88 in 10.0 mi ESE 13.8 mph - N/A   Overcast
2:53 AM 41.0 °F 33.9 °F 39.0 °F 93% 29.83 in 10.0 mi ESE 12.7 mph - N/A   Overcast
3:53 AM 41.0 °F - 37.9 °F 89% 29.87 in 10.0 mi Calm Calm - N/A   Overcast
4:10 AM 41.0 °F 37.1 °F 39.2 °F 93% 29.90 in 10.0 mi WNW 5.8 mph - N/A   Overcast
4:42 AM 41.0 °F 35.8 °F 37.4 °F 87% 29.91 in 10.0 mi NW 8.1 mph - N/A   Overcast
4:53 AM 41.0 °F 36.4 °F 37.9 °F 89% 29.86 in 10.0 mi NW 6.9 mph - N/A   Overcast
5:35 AM 32.0 °F 17.2 °F 26.6 °F 80% 29.93 in 10.0 mi NNE 32.2 mph 41.4 mph N/A   Overcast
5:53 AM 30.9 °F 15.5 °F 26.1 °F 82% 29.94 in 10.0 mi NNE 33.4 mph 42.6 mph N/A   Overcast
6:13 AM 30.2 °F 15.7 °F 24.8 °F 80% 29.98 in 10.0 mi NNE 27.6 mph 35.7 mph N/A   Overcast
6:53 AM 30.0 °F 15.2 °F 25.0 °F 82% 30.02 in 10.0 mi NNE 28.8 mph 36.8 mph 0.00 in   Overcast
7:53 AM 28.0 °F 12.5 °F 23.0 °F 81% 30.08 in 8.0 mi NNE 28.8 mph 41.4 mph 0.00 in Snow Light Snow
8:02 AM 28.4 °F 12.5 °F 21.2 °F 74% 30.06 in 9.0 mi NE 31.1 mph 42.6 mph 0.00 in Snow Light Snow
8:53 AM 28.9 °F 13.2 °F 21.0 °F 72% 30.12 in 10.0 mi NE 31.1 mph 41.4 mph 0.00 in   Overcast
9:53 AM 28.0 °F 13.0 °F 21.0 °F 75% 30.20 in 10.0 mi NNE 26.5 mph 32.2 mph 0.00 in   Overcast
10:53 AM 28.0 °F 15.7 °F 19.0 °F 69% 30.25 in 8.0 mi NE 17.3 mph 27.6 mph 0.00 in   Overcast
11:04 AM 28.4 °F 15.4 °F 19.4 °F 69% 30.20 in 7.0 mi NE 19.6 mph 26.5 mph 0.00 in Snow Light Snow
11:48 AM 28.4 °F 15.4 °F 21.2 °F 74% 30.21 in 2.5 mi NE 19.6 mph - 0.00 in Snow Light Snow
11:53 AM 28.9 °F 16.5 °F 21.0 °F 72% 30.26 in 3.0 mi NNE 18.4 mph - 0.00 in Snow Light Snow
12:09 PM 28.4 °F 15.8 °F 21.2 °F 74% 30.21 in 2.5 mi NE 18.4 mph 25.3 mph 0.00 in Snow Light Snow
12:32 PM 30.2 °F 17.4 °F 21.2 °F 69% 30.21 in 5.0 mi NNE 20.7 mph 26.5 mph 0.00 in Snow Light Snow
12:53 PM 28.9 °F 16.9 °F 21.0 °F 72% 30.26 in 4.0 mi NNE 17.3 mph 25.3 mph 0.00 in Snow Light Snow
1:53 PM 32.0 °F 19.8 °F 19.9 °F 61% 30.27 in 10.0 mi NE 20.7 mph 27.6 mph 0.00 in   Overcast
2:02 PM 32.0 °F 19.8 °F 19.4 °F 60% 30.21 in 10.0 mi NE 20.7 mph 25.3 mph N/A   Overcast
2:53 PM 34.0 °F 22.7 °F 19.9 °F 56% 30.24 in 10.0 mi NE 19.6 mph 29.9 mph N/A   Overcast
3:13 PM 32.0 °F 20.1 °F 19.4 °F 60% 30.22 in 10.0 mi NNE 19.6 mph 29.9 mph N/A   Overcast
3:24 PM 32.0 °F 19.8 °F 19.4 °F 60% 30.22 in 10.0 mi NE 20.7 mph 27.6 mph N/A   Overcast
3:53 PM 32.0 °F 20.5 °F 19.0 °F 59% 30.27 in 10.0 mi NE 18.4 mph - N/A   Overcast
4:08 PM 30.2 °F 18.1 °F 19.4 °F 64% 30.22 in 10.0 mi NE 18.4 mph - N/A   Overcast
4:16 PM 32.0 °F 21.6 °F 19.4 °F 60% 30.23 in 10.0 mi NNE 15.0 mph 24.2 mph N/A   Overcast
4:23 PM 32.0 °F 19.8 °F 19.4 °F 60% 30.22 in 10.0 mi NNE 20.7 mph 25.3 mph N/A   Overcast
4:31 PM 32.0 °F 19.8 °F 19.4 °F 60% 30.23 in 10.0 mi NNE 20.7 mph 25.3 mph N/A   Overcast
4:53 PM 30.0 °F 17.9 °F 19.0 °F 64% 30.30 in 10.0 mi NNE 18.4 mph 24.2 mph N/A   Overcast
5:21 PM 30.2 °F 18.1 °F 19.4 °F 64% 30.25 in 10.0 mi NE 18.4 mph - N/A   Overcast
5:53 PM 30.0 °F 19.5 °F 19.0 °F 64% 30.35 in 10.0 mi NE 13.8 mph - N/A   Overcast
6:53 PM 28.0 °F 17.5 °F 19.0 °F 69% 30.37 in 10.0 mi NE 12.7 mph - N/A   Clear
7:53 PM 25.0 °F 13.6 °F 17.1 °F 72% 30.40 in 10.0 mi NE 12.7 mph - N/A   Clear
8:53 PM 24.1 °F 13.7 °F 17.1 °F 75% 30.43 in 10.0 mi NE 10.4 mph - N/A   Overcast
9:53 PM 23.0 °F 17.0 °F 16.0 °F 74% 30.46 in 10.0 mi NNE 4.6 mph - N/A   Overcast
10:53 PM 23.0 °F 14.7 °F 16.0 °F 74% 30.45 in 10.0 mi North 6.9 mph - N/A   Overcast
11:53 PM 23.0 °F 18.4 °F 15.1 °F 72% 30.44 in 10.0 mi NNE 3.5 mph - N/A   Overcast